Location: Unspecified
(20.0000°S, 0.0000°E)
Time: 14:50:13
(UTC+00:00)

XW-2B - Visible Passes

Search period start: 17 July 2019 00:00
Search period end: 27 July 2019 00:00
Orbit: 508 x 529 km, 97.5° (Epoch: 17 July)

Date Brightness Start Highest point End Pass type
(mag) Time Alt. Az. Time Alt. Az. Time Alt. Az.
17 Jul ? 05:07:57 10° NNE 05:11:33 43° ESE 05:15:13 10° S visible
17 Jul ? 18:25:10 10° SSW 18:28:20 25° WSW 18:31:28 10° NW visible
18 Jul ? 04:54:25 10° NE 04:57:39 27° ESE 05:00:56 10° SSE visible
18 Jul ? 18:10:50 10° S 18:14:26 39° WSW 18:17:59 10° NW visible
19 Jul ? 04:41:13 10° ENE 04:43:46 17° ESE 04:46:20 10° SSE visible
19 Jul ? 17:56:42 10° S 18:00:31 67° WSW 18:04:16 10° NNW visible
20 Jul ? 04:28:51 10° E 04:29:55 11° ESE 04:30:58 10° ESE visible
20 Jul ? 06:00:25 10° NNW 06:03:39 27° W 06:06:56 10° SW visible
21 Jul ? 05:46:03 10° N 05:49:40 44° W 05:53:22 10° SSW visible
22 Jul ? 05:31:56 10° N 05:35:42 75° W 05:39:33 10° SSW visible
22 Jul ? 18:51:11 10° SW 18:52:22 11° WSW 18:53:33 10° W visible
23 Jul ? 05:18:00 10° NNE 05:21:46 65° ESE 05:25:35 10° S visible
23 Jul ? 18:35:54 10° SSW 18:38:30 18° WSW 18:41:05 10° WNW visible
24 Jul ? 05:04:17 10° NE 05:07:50 38° ESE 05:11:26 10° S visible
24 Jul ? 18:21:20 10° SSW 18:24:37 28° WSW 18:27:51 10° NW visible
25 Jul ? 04:50:49 10° NE 04:53:55 24° ESE 04:57:05 10° SSE visible
25 Jul ? 18:07:02 10° S 18:10:42 45° WSW 18:14:18 10° NNW visible
26 Jul ? 04:37:44 10° ENE 04:40:03 16° ESE 04:42:23 10° SE visible
